GW5647 Weather Reports


time (UTC)temp
C
wind
direction
speed
KPH
gust
KPH
rain 1hr
cm
rain 24hr
cm
rain mn
cm
humidity
%
barometer
mb
20260508023603 22 61 0.0 1.6 0.00 0.51 0.51 93 1018.3
20260508023101 22 12 0.0 0.0 0.00 0.51 0.51 92 1018.5
20260508022557 23 13 0.0 1.6 0.00 0.51 0.51 92 1018.4
20260508022054 23 262 3.2 6.4 0.00 0.51 0.51 93 1018.4
20260508021550 23 230 6.4 6.4 0.00 0.51 0.51 94 1018.5
20260508021046 22 264 4.8 4.8 0.00 0.51 0.51 94 1018.3
20260508020543 22 254 0.0 0.0 0.00 0.51 0.51 94 1018.2
20260508020041 22 254 0.0 0.0 0.00 0.51 0.51 94 1018.5
20260508015538 22 254 0.0 0.0 0.00 0.51 0.51 93 1018.3
20260508015035 23 254 0.0 1.6 0.00 0.51 0.51 93 1018.3
20260508014532 22 213 4.8 4.8 0.00 0.51 0.51 93 1018.3
20260508014028 22 260 3.2 4.8 0.00 0.51 0.51 94 1018.4
20260508013524 22 85 0.0 0.0 0.00 0.51 0.51 94 1018.3
20260508013021 23 115 0.0 0.0 0.00 0.51 0.51 94 1018.4
20260508012519 23 198 0.0 1.6 0.00 0.51 0.51 94 1018.0
20260508012016 23 120 0.0 0.0 0.00 0.51 0.51 94 1018.1
20260508011514 23 15 0.0 0.0 0.00 0.51 0.51 93 1018.2
20260508011011 23 240 3.2 6.4 0.00 0.51 0.51 94 1017.9
20260508010508 23 245 0.0 3.2 0.00 0.51 0.51 94 1018.1
20260508010005 23 308 0.0 1.6 0.00 0.51 0.51 94 1017.8
20260508005501 23 273 4.8 6.4 0.00 0.51 0.51 94 1018.0
20260508004959 23 254 0.0 0.0 0.00 0.51 0.51 94 1018.0
20260508004454 23 255 0.0 0.0 0.00 0.51 0.51 94 1018.0
20260508003951 23 254 0.0 0.0 0.00 0.51 0.51 93 1017.9
20260508003448 23 266 0.0 1.6 0.00 0.51 0.51 93 1017.7
20260508002945 23 266 0.0 0.0 0.00 0.51 0.51 92 1017.6
20260508002441 23 266 0.0 0.0 0.00 0.51 0.51 92 1017.7
20260508001937 23 266 1.6 3.2 0.00 0.51 0.51 92 1017.8
20260508001434 23 275 0.0 1.6 0.00 0.51 0.51 92 1017.7
20260508000931 23 305 3.2 3.2 0.00 0.51 0.51 93 1017.7
20260508000427 23 305 1.6 1.6 0.00 0.51 0.51 92 1017.5
20260507235924 23 306 0.0 3.2 0.00 0.51 0.51 93 1017.6
20260507235421 23 306 0.0 0.0 0.00 0.51 0.51 93 1017.7
20260507234918 23 306 0.0 0.0 0.00 0.51 0.51 93 1017.6
20260507234414 23 306 0.0 0.0 0.00 0.51 0.51 93 1017.8
20260507233911 23 306 0.0 0.0 0.00 0.51 0.51 92 1017.5
20260507233408 23 306 0.0 0.0 0.00 0.51 0.51 92 1017.6
20260507232907 23 306 0.0 0.0 0.00 0.51 0.51 92 1017.4
20260507232403 23 306 0.0 0.0 0.00 0.51 0.51 92 1017.4
20260507231900 23 306 0.0 0.0 0.00 0.51 0.51 92 1017.1
20260507231356 23 306 0.0 0.0 0.00 0.51 0.51 92 1017.2
20260507230853 23 306 0.0 0.0 0.00 0.51 0.51 92 1017.0
20260507230350 23 306 0.0 0.0 0.00 0.51 0.51 91 1017.3
20260507225850 23 306 0.0 0.0 0.00 0.51 0.51 91 1017.0
20260507225346 24 306 0.0 0.0 0.00 0.51 0.51 91 1017.0
20260507224842 24 306 0.0 0.0 0.00 0.51 0.51 91 1017.1
20260507224339 24 306 0.0 0.0 0.00 0.51 0.51 90 1017.0
20260507223835 24 306 0.0 0.0 0.00 0.51 0.51 89 1016.9
20260507223331 24 306 0.0 0.0 0.00 0.51 0.51 89 1017.0
20260507222829 25 306 0.0 0.0 0.00 0.51 0.51 88 1016.7
20260507222325 25 306 0.0 0.0 0.00 0.51 0.51 87 1016.4
20260507221822 25 306 0.0 0.0 0.00 0.51 0.51 87 1016.5
20260507221319 25 308 0.0 1.6 0.00 0.51 0.51 86 1016.4
20260507220815 25 259 3.2 4.8 0.00 0.51 0.51 86 1016.3
20260507220314 25 273 4.8 4.8 0.00 0.51 0.51 86 1016.2
20260507215809 25 261 0.0 0.0 0.00 0.51 0.51 88 1016.3
20260507215307 25 267 3.2 4.8 0.00 0.51 0.51 87 1016.3
20260507214804 25 250 0.0 0.0 0.00 0.51 0.51 87 1016.1
20260507214301 25 250 0.0 1.6 0.00 0.51 0.51 86 1016.3
20260507213756 25 250 0.0 0.0 0.00 0.51 0.51 85 1016.2
20260507213253 26 250 0.0 1.6 0.00 0.51 0.51 84 1016.4
20260507212750 26 250 0.0 0.0 0.00 0.51 0.51 83 1016.0
20260507212246 26 249 3.2 4.8 0.00 0.51 0.51 81 1016.0
20260507211743 26 308 0.0 3.2 0.00 0.51 0.51 82 1016.0
20260507211239 26 213 0.0 0.0 0.00 0.51 0.51 81 1016.0
20260507210736 26 214 1.6 9.7 0.00 0.51 0.51 79 1016.0
20260507210233 27 310 0.0 4.8 0.00 0.51 0.51 79 1016.3
20260507205730 27 117 1.6 1.6 0.00 0.51 0.51 78 1016.0
20260507205226 27 270 4.8 4.8 0.00 0.51 0.51 77 1016.1
20260507204722 27 209 1.6 1.6 0.00 0.51 0.51 76 1015.9
20260507204221 27 180 0.0 3.2 0.00 0.51 0.51 78 1016.2
20260507203718 27 273 0.0 3.2 0.00 0.51 0.51 79 1016.0
20260507203215 27 290 4.8 6.4 0.00 0.51 0.51 78 1016.3
20260507202711 27 239 3.2 3.2 0.00 0.51 0.51 78 1015.8
20260507202207 27 245 4.8 6.4 0.00 0.51 0.51 78 1016.2
20260507201702 27 256 3.2 4.8 0.00 0.51 0.51 76 1015.9
20260507201200 28 111 1.6 6.4 0.00 0.51 0.51 76 1016.3
20260507200656 28 90 1.6 3.2 0.00 0.51 0.51 75 1016.1
20260507200152 29 342 1.6 3.2 0.00 0.51 0.51 74 1016.0
20260507195648 28 356 3.2 3.2 0.00 0.51 0.51 75 1016.1
20260507195146 27 218 1.6 3.2 0.00 0.51 0.51 79 1016.1
20260507194642 27 244 1.6 6.4 0.00 0.51 0.51 80 1016.4
20260507194138 27 260 1.6 4.8 0.00 0.51 0.51 80 1016.3
20260507193635 27 280 6.4 6.4 0.00 0.51 0.51 79 1016.2
20260507193132 28 359 3.2 3.2 0.00 0.51 0.51 77 1016.3
20260507192628 28 10 1.6 4.8 0.00 0.51 0.51 77 1016.3
20260507192125 27 264 0.0 4.8 0.00 0.51 0.51 77 1016.4
20260507191621 27 295 1.6 1.6 0.00 0.51 0.51 81 1017.0
20260507191118 28 325 0.0 3.2 0.00 0.51 0.51 79 1016.6
20260507190615 28 304 6.4 6.4 0.00 0.51 0.51 76 1016.9
20260507190114 28 135 0.0 3.2 0.00 0.51 0.51 75 1016.5
20260507185612 28 156 0.0 1.6 0.00 0.51 0.51 75 1016.7
20260507185108 27 264 1.6 9.7 0.00 0.51 0.51 79 1016.4
20260507184606 28 253 6.4 9.7 0.00 0.51 0.51 76 1016.7
20260507184104 28 315 0.0 0.0 0.00 0.51 0.51 76 1016.6
20260507183600 28 263 6.4 6.4 0.00 0.51 0.51 75 1016.6
20260507183057 28 218 3.2 4.8 0.00 0.51 0.51 74 1016.9
20260507182553 29 289 1.6 6.4 0.00 0.51 0.51 73 1016.7
20260507182049 29 267 0.0 4.8 0.00 0.51 0.51 71 1017.2
20260507181547 30 268 1.6 6.4 0.00 0.51 0.51 69 1017.2
20260507181042 29 306 1.6 1.6 0.00 0.51 0.51 72 1017.1
20260507180539 30 97 3.2 6.4 0.00 0.51 0.51 74 1017.1
20260507180036 30 199 1.6 3.2 0.00 0.51 0.51 73 1017.4
20260507175532 30 215 1.6 6.4 0.00 0.51 0.51 74 1017.3
20260507175030 30 19 1.6 3.2 0.00 0.51 0.51 71 1017.3
20260507174527 30 250 1.6 3.2 0.00 0.51 0.51 72 1017.2
20260507174025 30 355 0.0 9.7 0.00 0.51 0.51 71 1017.3
20260507173521 29 334 1.6 3.2 0.00 0.51 0.51 75 1017.5
20260507173019 30 290 1.6 4.8 0.00 0.51 0.51 75 1017.5
20260507172514 30 332 0.0 4.8 0.00 0.51 0.51 73 1017.7
20260507172011 30 56 3.2 4.8 0.00 0.51 0.51 73 1018.0
20260507171507 30 221 1.6 4.8 0.00 0.51 0.51 72 1017.7
20260507171005 31 120 0.0 3.2 0.00 0.51 0.51 72 1017.8
20260507170501 30 166 0.0 1.6 0.00 0.51 0.51 74 1017.9
20260507165957 30 259 3.2 6.4 0.00 0.51 0.51 73 1018.0
20260507165453 30 22 1.6 4.8 0.00 0.51 0.51 75 1018.1
20260507164949 30 159 1.6 1.6 0.00 0.51 0.51 78 1018.1
20260507164446 29 181 0.0 1.6 0.00 0.51 0.51 74 1018.2
20260507163943 28 183 1.6 3.2 0.00 0.51 0.51 76 1018.2
20260507163441 28 171 0.0 1.6 0.00 0.51 0.51 82 1018.6
20260507162938 29 218 0.0 1.6 0.00 0.51 0.51 79 1018.5
20260507162433 28 336 1.6 4.8 0.00 0.51 0.51 79 1018.6
20260507161930 28 287 1.6 6.4 0.00 0.51 0.51 82 1018.7
20260507161426 28 226 3.2 3.2 0.00 0.51 0.51 87 1018.6
20260507160923 27 271 0.0 0.0 0.00 0.51 0.51 90 1018.8
20260507160419 26 271 0.0 0.0 0.00 0.51 0.51 91 1018.9
20260507155915 26 270 0.0 1.6 0.00 0.51 0.51 90 1018.9
20260507155411 26 271 0.0 1.6 0.00 0.51 0.51 88 1018.9
20260507154908 26 292 0.0 0.0 0.00 0.51 0.51 91 1019.0
20260507154405 26 292 0.0 0.0 0.00 0.51 0.51 91 1018.7
20260507153903 26 293 0.0 1.6 0.00 0.51 0.51 90 1019.0
20260507153359 26 292 0.0 0.0 0.00 0.51 0.51 91 1019.2
20260507152855 26 292 4.8 4.8 0.00 0.51 0.51 91 1019.2
20260507152352 25 274 0.0 0.0 0.00 0.51 0.51 92 1019.0
20260507151848 25 273 0.0 0.0 0.89 0.51 0.51 91 1019.3
20260507151344 25 273 0.0 0.0 1.85 0.51 0.51 90 1019.3
20260507150841 26 298 1.6 3.2 0.97 0.36 0.36 89 1019.1
20260507150338 26 280 0.0 1.6 0.00 0.20 0.20 85 1019.3
20260507145834 26 280 1.6 3.2 0.00 0.20 0.20 86 1019.5
20260507145331 26 253 0.0 3.2 0.00 0.20 0.20 89 1019.2
20260507144828 26 273 1.6 3.2 0.00 0.20 0.20 90 1019.3
20260507144325 26 258 3.2 4.8 0.00 0.20 0.20 90 1019.2
20260507143821 25 222 1.6 1.6 0.13 0.20 0.20 90 1019.5
20260507143319 25 221 0.0 1.6 1.02 0.20 0.20 90 1019.4
20260507142814 26 221 1.6 3.2 0.00 0.03 0.03 83 1019.4
20260507142311 26 147 0.0 11.3 0.00 0.03 0.03 81 1019.4
20260507141808 27 228 3.2 6.4 0.00 0.03 0.03 79 1019.2
20260507141305 27 253 0.0 4.8 0.00 0.03 0.03 79 1019.4
20260507140801 27 332 0.0 0.0 0.00 0.03 0.03 80 1019.3
20260507140258 27 275 0.0 4.8 0.00 0.03 0.03 80 1019.2
20260507135756 27 237 1.6 4.8 0.00 0.03 0.03 76 1019.3
20260507135253 27 285 3.2 4.8 0.00 0.03 0.03 79 1019.3
20260507134749 27 272 0.0 3.2 0.00 0.03 0.03 79 1019.1
20260507134246 27 262 1.6 3.2 0.00 0.03 0.03 80 1018.8
20260507133741 27 289 3.2 4.8 0.00 0.03 0.03 80 1019.1
20260507133238 27 303 0.0 6.4 0.00 0.03 0.03 78 1019.2
20260507132736 27 177 0.0 1.6 0.00 0.03 0.03 81 1019.0
20260507132233 26 189 1.6 1.6 0.00 0.03 0.03 82 1019.2
20260507131729 26 189 0.0 4.8 0.00 0.03 0.03 82 1018.9
20260507131227 26 254 0.0 0.0 0.00 0.03 0.03 87 1019.0
20260507130723 26 254 0.0 3.2 0.00 0.03 0.03 84 1019.2
20260507130221 26 238 0.0 1.6 0.00 0.03 0.03 86 1019.0
20260507125720 26 238 0.0 0.0 0.00 0.03 0.03 86 1019.1
20260507125217 26 242 3.2 3.2 0.00 0.03 0.03 86 1019.1
20260507124713 25 266 3.2 3.2 0.00 0.03 0.03 87 1018.9
20260507124210 25 303 1.6 4.8 0.00 0.03 0.03 88 1018.9
20260507123709 25 279 0.0 3.2 0.00 0.03 0.03 89 1019.0
20260507123206 25 287 4.8 4.8 0.00 0.03 0.03 91 1018.8
20260507122700 25 261 0.0 0.0 0.00 0.03 0.03 93 1018.8
20260507122157 24 260 0.0 3.2 0.00 0.03 0.03 93 1018.5
20260507121653 24 258 0.0 0.0 0.00 0.03 0.03 94 1018.5
20260507121149 24 257 0.0 3.2 0.00 0.03 0.03 93 1018.6
20260507120645 24 201 0.0 1.6 0.00 0.03 0.03 94 1018.6
20260507120142 24 134 0.0 1.6 0.00 0.03 0.03 94 1018.4
20260507115638 23 287 1.6 3.2 0.00 0.03 0.03 95 1018.5
20260507115134 23 281 3.2 3.2 0.00 0.03 0.03 96 1018.4
20260507114630 23 162 0.0 0.0 0.00 0.03 0.03 96 1018.3
20260507114127 23 235 1.6 3.2 0.00 0.03 0.03 96 1018.2
20260507113625 23 288 0.0 1.6 0.00 0.03 0.03 96 1018.4
20260507113122 23 309 0.0 0.0 0.00 0.03 0.03 97 1018.3
20260507112620 23 308 0.0 0.0 0.00 0.03 0.03 97 1018.3
20260507112116 23 262 4.8 6.4 0.00 0.03 0.03 97 1018.3
20260507111613 23 196 0.0 0.0 0.00 0.03 0.03 97 1018.3
20260507111110 23 196 0.0 0.0 0.18 0.03 0.03 97 1018.3
20260507110606 23 196 0.0 0.0 0.18 0.03 0.03 97 1018.2
20260507105600 22 196 0.0 0.0 0.00 0.00 0.00 97 1018.1
20260507105055 22 196 0.0 0.0 0.00 0.00 0.00 97 1018.1
20260507104553 22 196 0.0 0.0 0.00 0.00 0.00 97 1018.0
20260507104049 22 196 0.0 0.0 0.00 0.00 0.00 97 1017.8
20260507103545 22 196 0.0 0.0 0.00 0.00 0.00 97 1017.9
20260507103042 22 196 0.0 0.0 0.00 0.00 0.00 97 1017.7
20260507102539 22 196 0.0 0.0 0.00 0.00 0.00 97 1017.9
20260507102035 22 196 0.0 0.0 0.00 0.00 0.00 97 1017.8
20260507101530 22 196 0.0 0.0 0.00 0.00 0.00 97 1017.6
20260507101027 22 196 0.0 0.0 0.00 0.00 0.00 97 1017.7
20260507100525 22 196 0.0 0.0 0.00 0.00 0.00 97 1017.8
20260507100023 22 196 0.0 0.0 0.00 0.00 0.00 97 1017.8
20260507095520 22 196 0.0 0.0 0.00 0.00 0.00 97 1017.9
20260507095017 21 196 0.0 0.0 0.00 0.00 0.00 97 1017.9
20260507094513 21 196 0.0 0.0 0.00 0.00 0.00 97 1017.7
20260507094010 21 196 0.0 0.0 0.00 0.00 0.00 97 1017.8
20260507093507 22 196 0.0 0.0 0.00 0.00 0.00 97 1017.8
20260507093006 22 196 0.0 0.0 0.00 0.00 0.00 97 1017.7
20260507092502 22 196 0.0 0.0 0.00 0.00 0.00 97 1017.9
20260507091959 21 196 0.0 0.0 0.00 0.00 0.00 97 1017.7
20260507091455 22 196 0.0 0.0 0.00 0.00 0.00 97 1017.6
20260507090951 22 196 0.0 0.0 0.00 0.00 0.00 97 1017.7
20260507090447 22 196 0.0 0.0 0.00 0.00 0.00 97 1017.9
20260507085944 21 196 0.0 0.0 0.00 0.00 0.00 97 1017.9
20260507085441 21 196 0.0 0.0 0.00 0.00 0.00 97 1017.8
20260507084938 21 196 0.0 0.0 0.00 0.00 0.00 97 1017.6
20260507084435 21 196 0.0 0.0 0.00 0.00 0.00 97 1017.9
20260507083932 22 196 0.0 0.0 0.00 0.00 0.00 97 1017.8
20260507083428 22 196 0.0 0.0 0.00 0.00 0.00 97 1017.5
20260507082925 22 196 0.0 0.0 0.00 0.00 0.00 96 1017.8
20260507082421 22 196 0.0 0.0 0.00 0.00 0.00 96 1017.6
20260507081918 22 196 0.0 0.0 0.00 0.00 0.00 96 1017.5
20260507081414 22 196 0.0 0.0 0.00 0.00 0.00 96 1017.3
20260507080911 22 196 0.0 0.0 0.00 0.00 0.00 96 1017.4
20260507080407 22 196 0.0 0.0 0.00 0.00 0.00 96 1017.4
20260507075902 22 197 0.0 0.0 0.00 0.00 0.00 96 1017.3
20260507075359 22 196 0.0 0.0 0.00 0.00 0.00 96 1017.3
20260507074855 22 196 0.0 0.0 0.00 0.00 0.00 96 1017.5
20260507074352 22 196 0.0 0.0 0.00 0.00 0.00 96 1017.4
20260507073850 22 197 0.0 0.0 0.00 0.00 0.00 96 1017.6
20260507073346 22 221 0.0 0.0 0.00 0.00 0.00 96 1017.8
20260507072843 22 222 0.0 0.0 0.00 0.00 0.00 96 1017.7
20260507072341 22 222 0.0 1.6 0.00 0.00 0.00 97 1017.7
20260507071838 22 271 0.0 0.0 0.00 0.00 0.00 96 1017.4
20260507071335 22 271 0.0 0.0 0.00 0.00 0.00 96 1017.7
20260507070831 22 271 0.0 0.0 0.00 0.00 0.00 96 1017.6
20260507070329 22 271 0.0 0.0 0.00 0.00 0.00 96 1017.9
20260507065825 22 271 0.0 0.0 0.00 0.00 0.00 96 1017.5
20260507065322 22 271 0.0 0.0 0.00 0.00 0.00 96 1018.1
20260507064819 22 271 0.0 0.0 0.00 0.00 0.00 96 1017.8
20260507064318 22 271 0.0 0.0 0.00 0.00 0.00 96 1017.9
20260507063816 22 271 0.0 0.0 0.00 0.00 0.00 96 1018.0
20260507063312 22 271 0.0 0.0 0.00 0.00 0.00 96 1018.3
20260507062809 22 271 0.0 0.0 0.00 0.00 0.00 96 1018.1
20260507062306 22 271 0.0 0.0 0.00 0.00 0.00 96 1018.4
20260507061804 22 271 0.0 0.0 0.00 0.00 0.00 96 1018.3
20260507061301 22 272 0.0 0.0 0.00 0.00 0.00 96 1018.3
20260507060800 22 272 0.0 0.0 0.00 0.00 0.00 96 1018.4
20260507060256 22 271 0.0 0.0 0.00 0.00 0.00 96 1018.4
20260507055752 22 272 0.0 1.6 0.00 0.00 0.00 95 1018.4
20260507055248 22 272 0.0 0.0 0.00 0.00 0.00 95 1018.8
20260507054744 22 272 0.0 0.0 0.00 0.00 0.00 95 1018.6
20260507054241 22 272 0.0 0.0 0.00 0.00 0.00 95 1018.7
20260507053738 22 272 0.0 0.0 0.00 0.00 0.00 95 1018.7
20260507053236 22 272 0.0 0.0 0.00 0.00 0.00 95 1018.7
20260507052735 22 272 0.0 0.0 0.00 0.00 0.00 95 1018.7
20260507052231 23 272 0.0 0.0 0.00 0.00 0.00 95 1019.1
20260507051729 23 272 0.0 0.0 0.00 0.00 0.00 95 1019.2
20260507051225 22 272 0.0 0.0 0.00 0.00 0.00 96 1019.2
20260507050722 23 272 0.0 0.0 0.00 0.00 0.00 95 1019.4
20260507050219 23 272 0.0 0.0 0.00 0.00 0.00 96 1019.4
20260507045716 22 272 0.0 0.0 0.00 0.00 0.00 96 1019.6
20260507045212 22 272 0.0 0.0 0.00 0.00 0.00 96 1019.6
20260507044709 22 272 0.0 0.0 0.00 0.00 0.00 96 1019.6
20260507044206 22 272 0.0 0.0 0.00 0.00 0.00 96 1019.6
20260507043702 22 272 0.0 0.0 0.00 0.00 0.00 96 1019.8
20260507043159 22 272 0.0 0.0 0.00 0.00 0.00 96 1019.9
20260507042655 22 271 0.0 0.0 0.00 0.00 0.00 96 1019.9
20260507042150 22 272 0.0 0.0 0.00 0.00 0.00 96 1019.9
20260507041648 22 271 0.0 0.0 0.00 0.00 0.00 96 1019.9
20260507041144 22 271 0.0 0.0 0.00 0.00 0.00 96 1020.0
20260507040641 22 271 0.0 0.0 0.00 0.00 0.00 96 1020.0
20260507040138 22 272 0.0 0.0 0.00 0.00 0.00 96 1019.8
20260507035633 22 271 0.0 0.0 0.00 0.00 0.00 96 1020.1
20260507035130 22 271 0.0 0.0 0.00 0.00 0.00 96 1020.1
20260507034627 22 271 0.0 0.0 0.00 0.00 0.00 96 1020.2
20260507034124 22 271 0.0 0.0 0.00 0.00 0.00 95 1020.0
20260507033623 22 271 0.0 0.0 0.00 0.00 0.00 95 1019.9
20260507033119 22 271 0.0 0.0 0.00 0.00 0.00 95 1020.2
20260507032617 22 272 0.0 1.6 0.00 0.00 0.00 95 1020.0
20260507032113 22 273 0.0 0.0 0.00 0.00 0.00 95 1020.1
20260507031609 22 273 0.0 0.0 0.00 0.00 0.00 95 1020.2
20260507031106 22 273 0.0 0.0 0.00 0.00 0.00 95 1020.1
20260507030602 22 273 0.0 0.0 0.00 0.00 0.00 95 1020.1
20260507030101 22 273 0.0 0.0 0.00 0.00 0.00 95 1019.7
20260507025558 22 273 0.0 0.0 0.00 0.00 0.00 95 1020.1
20260507025054 22 273 0.0 0.0 0.00 0.00 0.00 95 1020.2
20260507024553 22 273 0.0 0.0 0.00 0.00 0.00 95 1020.2
20260507024049 22 273 0.0 0.0 0.00 0.00 0.00 95 1020.1